EN

Hourly Weather Amatan

Today, 21 January, Thursday

Time Temperature Precipitation Wind Pressure Humidity
00:00 +21°C° 0 mm 1 mps 732 mmHg 98%
01:00 +21°C° 0 mm 1 mps 731 mmHg 98%
02:00 +21°C° 0 mm 1 mps 731 mmHg 97%
03:00 +21°C° 0 mm 1 mps 731 mmHg 97%
04:00 +20°C° 0 mm 1 mps 731 mmHg 97%
05:00 +20°C° 0 mm 1 mps 731 mmHg 97%
06:00 +20°C° 0 mm 1 mps 731 mmHg 97%
07:00 +22°C° 0 mm 1 mps 732 mmHg 93%
08:00 +23°C° 0 mm 1 mps 732 mmHg 88%
09:00 +24°C° 0 mm 1 mps 732 mmHg 84%
10:00 +26°C° 0 mm 1 mps 732 mmHg 74%
11:00 +28°C° 0 mm 1 mps 732 mmHg 64%
12:00 +30°C° 0 mm 2 mps 731 mmHg 55%
13:00 +30°C° 0 mm 2 mps 730 mmHg 58%
14:00 +30°C° 0 mm 2 mps 729 mmHg 61%
15:00 +30°C° 0 mm 2 mps 728 mmHg 64%
16:00 +28°C° 0 mm 2 mps 728 mmHg 74%
17:00 +26°C° 0 mm 1 mps 728 mmHg 84%
18:00 +24°C° 0 mm 1 mps 728 mmHg 94%
19:00 +24°C° 0 mm 1 mps 729 mmHg 95%
20:00 +23°C° 0 mm 1 mps 729 mmHg 96%
21:00 +23°C° 0 mm 1 mps 729 mmHg 97%
22:00 +22°C° 0 mm 1 mps 729 mmHg 96%
23:00 +22°C° 0 mm 1 mps 729 mmHg 95%

Tomorrow, 22 January, Friday

Time Temperature Precipitation Wind Pressure Humidity
00:00 +22°C° 0 mm 1 mps 729 mmHg 94%
01:00 +21°C° 0 mm 1 mps 728 mmHg 94%
02:00 +21°C° 0 mm 1 mps 728 mmHg 94%
03:00 +21°C° 0 mm 1 mps 728 mmHg 94%
04:00 +21°C° 0 mm 1 mps 728 mmHg 92%
05:00 +21°C° 0 mm 1 mps 728 mmHg 91%
06:00 +21°C° 0 mm 1 mps 728 mmHg 90%
07:00 +21°C° 0 mm 0 mps 729 mmHg 82%
08:00 +23°C° 0 mm 0 mps 729 mmHg 74%
09:00 +25°C° 0 mm 0 mps 729 mmHg 66%
10:00 +26°C° 0 mm 0 mps 729 mmHg 62%
11:00 +30°C° 0 mm 1 mps 729 mmHg 57%
12:00 +31°C° 0 mm 1 mps 729 mmHg 53%
13:00 +31°C° 0 mm 1 mps 728 mmHg 55%
14:00 +31°C° 0 mm 1 mps 727 mmHg 58%
15:00 +31°C° 0 mm 1 mps 726 mmHg 61%
16:00 +29°C° 0 mm 1 mps 727 mmHg 72%
17:00 +27°C° 0 mm 1 mps 727 mmHg 83%
18:00 +23°C° 0 mm 0 mps 727 mmHg 93%
19:00 +23°C° 0 mm 0 mps 727 mmHg 94%
20:00 +24°C° 0 mm 1 mps 728 mmHg 94%
21:00 +24°C° 0 mm 1 mps 728 mmHg 94%
22:00 +24°C° 0 mm 1 mps 728 mmHg 93%
23:00 +23°C° 0 mm 1 mps 728 mmHg 92%

Day after tomorrow, 23 January, Saturday

Time Temperature Precipitation Wind Pressure Humidity
00:00 +23°C° 0 mm 1 mps 728 mmHg 91%
01:00 +23°C° 0 mm 1 mps 728 mmHg 91%
02:00 +22°C° 0 mm 1 mps 728 mmHg 92%
03:00 +20°C° 0 mm 0 mps 727 mmHg 93%
04:00 +20°C° 0 mm 0 mps 728 mmHg 93%
05:00 +22°C° 0 mm 1 mps 728 mmHg 93%
06:00 +22°C° 0 mm 1 mps 728 mmHg 92%
07:00 +21°C° 0 mm 0 mps 729 mmHg 86%
08:00 +23°C° 0 mm 0 mps 730 mmHg 79%
09:00 +25°C° 0 mm 0 mps 730 mmHg 73%
10:00 +28°C° 0 mm 1 mps 730 mmHg 70%
11:00 +29°C° 0 mm 1 mps 729 mmHg 67%
12:00 +30°C° 0 mm 1 mps 729 mmHg 64%
13:00 +30°C° 0.1 mm 1 mps 728 mmHg 68%
14:00 +29°C° 0.1 mm 1 mps 728 mmHg 71%
15:00 +29°C° 0.1 mm 1 mps 727 mmHg 75%
16:00 +28°C° 0.1 mm 1 mps 727 mmHg 82%
17:00 +26°C° 0.1 mm 1 mps 727 mmHg 89%
18:00 +23°C° 0.1 mm 0 mps 727 mmHg 96%
19:00 +23°C° 0 mm 0 mps 727 mmHg 96%
20:00 +24°C° 0 mm 1 mps 728 mmHg 96%
21:00 +24°C° 0 mm 1 mps 728 mmHg 96%
22:00 +23°C° 0 mm 1 mps 728 mmHg 96%
23:00 +23°C° 0 mm 1 mps 728 mmHg 95%

24 January, Sunday

Time Temperature Precipitation Wind Pressure Humidity
00:00 +23°C° 0 mm 1 mps 728 mmHg 95%
01:00 +22°C° 0 mm 1 mps 728 mmHg 94%
02:00 +22°C° 0 mm 1 mps 728 mmHg 93%
03:00 +21°C° 0 mm 1 mps 727 mmHg 92%
04:00 +21°C° 0 mm 1 mps 727 mmHg 89%
05:00 +21°C° 0 mm 1 mps 727 mmHg 87%
06:00 +21°C° 0 mm 1 mps 727 mmHg 84%
07:00 +23°C° 0 mm 1 mps 728 mmHg 77%
08:00 +25°C° 0 mm 1 mps 728 mmHg 71%
09:00 +24°C° 0 mm 0 mps 729 mmHg 64%
10:00 +28°C° 0 mm 1 mps 729 mmHg 58%
11:00 +30°C° 0 mm 1 mps 728 mmHg 53%
12:00 +32°C° 0 mm 1 mps 728 mmHg 47%
13:00 +31°C° 0 mm 1 mps 727 mmHg 50%
14:00 +31°C° 0 mm 1 mps 727 mmHg 53%
15:00 +31°C° 0 mm 1 mps 726 mmHg 56%
16:00 +29°C° 0 mm 1 mps 726 mmHg 66%
17:00 +25°C° 0 mm 0 mps 726 mmHg 77%
18:00 +23°C° 0 mm 0 mps 726 mmHg 88%
19:00 +23°C° 0 mm 0 mps 726 mmHg 87%
20:00 +24°C° 0 mm 1 mps 727 mmHg 86%
21:00 +24°C° 0 mm 1 mps 727 mmHg 84%
22:00 +24°C° 0 mm 1 mps 727 mmHg 80%
23:00 +24°C° 0 mm 1 mps 727 mmHg 76%

25 January, Monday

Time Temperature Precipitation Wind Pressure Humidity
00:00 +24°C° 0 mm 1 mps 726 mmHg 72%
01:00 +24°C° 0 mm 1 mps 726 mmHg 72%
02:00 +24°C° 0 mm 1 mps 726 mmHg 72%
03:00 +23°C° 0 mm 1 mps 726 mmHg 72%
04:00 +23°C° 0 mm 1 mps 726 mmHg 72%
05:00 +23°C° 0 mm 1 mps 726 mmHg 72%
06:00 +23°C° 0 mm 1 mps 726 mmHg 72%
07:00 +25°C° 0 mm 1 mps 727 mmHg 67%
08:00 +26°C° 0 mm 1 mps 727 mmHg 63%
09:00 +28°C° 0 mm 1 mps 728 mmHg 59%
10:00 +30°C° 0 mm 1 mps 727 mmHg 54%
11:00 +32°C° 0 mm 1 mps 727 mmHg 49%
12:00 +34°C° 0 mm 1 mps 727 mmHg 43%
13:00 +33°C° 0 mm 1 mps 726 mmHg 46%
14:00 +33°C° 0 mm 1 mps 725 mmHg 49%
15:00 +33°C° 0 mm 1 mps 724 mmHg 51%
16:00 +31°C° 0 mm 1 mps 724 mmHg 63%
17:00 +26°C° 0 mm 0 mps 724 mmHg 74%
18:00 +24°C° 0 mm 0 mps 724 mmHg 85%
19:00 +24°C° 0 mm 0 mps 725 mmHg 84%
20:00 +25°C° 0 mm 1 mps 725 mmHg 82%
21:00 +25°C° 0 mm 1 mps 726 mmHg 80%
22:00 +25°C° 0 mm 1 mps 726 mmHg 78%
23:00 +25°C° 0 mm 1 mps 726 mmHg 75%

26 January, Tuesday

Time Temperature Precipitation Wind Pressure Humidity
00:00 +24°C° 0 mm 1 mps 726 mmHg 72%
01:00 +24°C° 0 mm 1 mps 726 mmHg 72%
02:00 +24°C° 0 mm 1 mps 726 mmHg 71%
03:00 +24°C° 0 mm 1 mps 726 mmHg 70%
04:00 +23°C° 0 mm 1 mps 726 mmHg 70%
05:00 +23°C° 0 mm 1 mps 726 mmHg 70%
06:00 +23°C° 0 mm 1 mps 726 mmHg 70%
07:00 +25°C° 0 mm 1 mps 727 mmHg 66%
08:00 +27°C° 0 mm 1 mps 727 mmHg 63%
09:00 +27°C° 0 mm 0 mps 728 mmHg 59%
10:00 +30°C° 0 mm 1 mps 727 mmHg 54%
11:00 +32°C° 0 mm 1 mps 727 mmHg 50%
12:00 +34°C° 0 mm 1 mps 727 mmHg 46%
13:00 +33°C° 0 mm 1 mps 726 mmHg 49%
14:00 +33°C° 0 mm 1 mps 726 mmHg 53%
15:00 +32°C° 0 mm 2 mps 725 mmHg 56%
16:00 +30°C° 0.2 mm 1 mps 725 mmHg 67%
17:00 +28°C° 0.2 mm 1 mps 725 mmHg 78%
18:00 +24°C° 0.2 mm 0 mps 725 mmHg 90%
19:00 +24°C° 0.1 mm 0 mps 726 mmHg 89%
20:00 +25°C° 0.1 mm 1 mps 726 mmHg 88%
21:00 +25°C° 0.1 mm 1 mps 727 mmHg 88%
22:00 +25°C° 0 mm 1 mps 727 mmHg 87%
23:00 +24°C° 0 mm 1 mps 727 mmHg 86%
Show more